Other Public Products
Issued by NWS Grand Forks, ND

Home | Current Version | Previous Version | Graphics & Text | Print | Product List | Glossary On
Versions: 1 2 3 4 5 6 7 8 9 10 11 12 13 14 15 16 17 18 19 20 21 22 23 24 25 26 27 28 29 30 31 32 33 34 35 36 37 38 39 40 41 42 43 44 45 46 47 48 49 50
114
FPUS83 KFGF 212110
OPUFGF
PRAIRIE TO PINES WEATHER ROUNDUP
NATIONAL WEATHER SERVICE EASTERN NORTH DAKOTA/GRAND FORKS ND
400 PM CDT SAT APR 21 2018

 **SATELLITE DATA USED TO AUGMENT SKY COVER AT AUTOMATED STATIONS**
 *****  WEATHER ACROSS EASTERN NORTH DAKOTA  *****

CITY           SKY/WX    TMP DP  RH WIND       PRES   REMARKS
GRAND FORKS    FAIR      57  43  59 S16       30.27S
GRND FORKS AFB FAIR      58  43  57 S16       30.26F
GRND FORKS NWS   N/A     58  44  59 SW13      30.25S
BUXTON           N/A     59  49  67 S9          N/A
DEVILS LAKE    FAIR      59  39  47 S22G29    30.21F
FARGO          FAIR      61  39  44 S15G24    30.28F
WAHPETON ARPT  FAIR      59  37  44 S13       30.30F
$$

 *****  WEATHER ACROSS CENTRAL AND WESTERN NORTH DAKOTA  *****

CITY           SKY/WX    TMP DP  RH WIND       PRES   REMARKS
JAMESTOWN      FAIR      60  40  47 S16G30    30.24F
BISMARCK       FAIR      63  35  35 S22G29    30.17F
MINOT          FAIR      65  38  36 S30G40    30.09F
MINOT AFB      SUNNY     63  40  41 S26G38    30.07F
GARRISON         N/A     59  39  47 S20       30.11F
WILLISTON      FAIR      67  40  37 S16G28    30.00F
DICKINSON      FAIR      62  37  39 S26G35    30.08R
HETTINGER      FAIR      56  36  47 S25G33    30.15R
$$

 *****  OTHER OBSERVATIONS NORTHEAST NORTH DAKOTA  *****

CITY           SKY/WX    TMP DP  RH WIND       PRES   REMARKS
WALHALLA       FAIR      63  41  45 SW16      30.21S
LANGDON        MOCLDY    61  45  55 S23       30.21S
CAVALIER         N/A     63  43  48 S16       30.21S
GRAFTON        FAIR      63  43  48 SW16G25   30.26S
CANDO          MOCLDY    63  39  42 S23       30.21S
FORT TOTTEN      N/A     59  38  45 S13       29.95S
ROLLA          FAIR      57  43  58 S25       30.16F
RUGBY          FAIR      61  41  48 S22G29    30.15F
 ***** THE ABOVE OBSERVATIONS ARE NON NWS ARE NOT QUALITY
        CONTROLLED AND MAY MIS-REPORT RAIN FOR SNOW...
$$

 *****  OTHER OBSERVATIONS SOUTHEAST NORTH DAKOTA *****

CITY           SKY/WX    TMP DP  RH WIND       PRES   REMARKS
COOPERSTOWN    FAIR      57  46  67 S14G22    30.26F
VALLEY CITY    CLOUDY    57  43  58 S12G17    30.28S
OAKES            N/A     59  39  47 S16       30.27S
GWINNER          N/A     61  39  44 S14       30.27S
SHEYENNE NWR     N/A     62  40  44 S9        29.95S
BUFFALO          N/A     59  33  38 E12         N/A
WYNDMERE       NOT AVBL
 ***** THE ABOVE OBSERVATIONS ARE NON NWS ARE NOT QUALITY
       CONTROLLED AND MAY MIS-REPORT RAIN FOR SNOW...
$$

  *****  WEATHER ACROSS NORTHERN MINNESOTA  *****

CITY           SKY/WX    TMP DP  RH WIND       PRES   REMARKS
FLAG ISLAND    FAIR      52  28  40 SE8       30.25F
WARROAD        FAIR      61  41  48 SW8       30.27S
ROSEAU         FAIR      61  46  59 SW13      30.26F
HALLOCK        FAIR      63  46  55 S20       30.24S
THF RVR FALLS  PTSUNNY   57  42  57 SW12      30.29S
HALSTAD        NOT AVBL
FOSSTON        FAIR      61  34  36 S10       30.29F
BAUDETTE       FAIR      60  26  27 SE7       30.27F
WASKISH        CLOUDY    55  30  38 NW6       30.29F
CROOKSTON      FAIR      59  43  55 SW10      30.29S
$$
  *****  WEATHER ACROSS CENTRAL AND WEST MINNESOTA  *****

CITY           SKY/WX    TMP DP  RH WIND       PRES   REMARKS
BEMIDJI        FAIR      59  33  36 E5        30.29S
PARK RAPIDS    FAIR      57  30  35 MISG      30.31S
WADENA         FAIR      57  30  35 S5        30.32S
DETROIT LAKES  FAIR      59  30  33 S9        30.31F
MOORHEAD       FAIR      59  39  47 S10G16    30.30F
FERGUS FALLS   FAIR      57  39  51 S14       30.29F
ELBOW LAKE     FAIR      57  34  42 S9G21     30.33S
MORRIS MN      FAIR      57  36  44 S8        30.32F
STAPLES        FAIR      55  28  35 S5        30.33F
WHEATON        FAIR      57  37  47 S12G17    30.33F
$$
  *****  WEATHER ELSEWHERE ACROSS MINNESOTA  *****

CITY           SKY/WX    TMP DP  RH WIND       PRES   REMARKS
DULUTH         FAIR      56  17  21 SE5       30.32F
INTRNTL FALLS  FAIR      61  30  31 VRB6      30.27F
ELY            FAIR      57  19  23 W8        30.29F
CLOQUET        FAIR      55  10  16 S5        30.33S
BRAINERD       FAIR      58  28  32 S5        30.34S
HIBBING        FAIR      57  17  21 VRB3      30.30F
ALEXANDRIA     FAIR      59  33  37 SW9       30.33F
SAINT CLOUD    FAIR      56  28  34 VRB3      30.34F
MINNEAPOLIS    FAIR      59  18  20 VRB5      30.34F
$$

  *****  WEATHER ACROSS SOUTH DAKOTA  *****

CITY           SKY/WX    TMP DP  RH WIND       PRES   REMARKS
SIOUX FALLS    CLOUDY    50  36  58 E9        30.30F
BROOKINGS      CLOUDY    50  37  61 SE8       30.32F
WATERTOWN      FAIR      54  36  50 S9        30.30F
HURON          CLOUDY    47  36  65 CALM      30.30F
SISSETON         N/A     58  39  49 S13       30.29F
ABERDEEN       FAIR      60  33  36 S20       30.29F
MITCHELL       CLOUDY    43  37  79 NW5       30.30F
PIERRE         PTSUNNY   51  38  60 S20       30.25F
MOBRIDGE       FAIR      58  35  42 S26G33    30.21F
RAPID CITY     FAIR      54  37  52 S17G28    30.15F
$$

  *****  SOME WEATHER IN NEARBY STATES *****

CITY           SKY/WX    TMP DP  RH WIND       PRES   REMARKS
GLASGOW MT     FAIR      74  34  23 S14       29.87F
GREAT FALLS MT FAIR      64  28  25 W35G51    29.93S
CHEYENNE WY    CLOUDY    42  33  70 CALM      30.15F
SCOTTSBLUFF NE CLOUDY    43  39  86 SE6       30.19F
OMAHA NE       CLOUDY    54  30  40 SW5       30.25S
DES MOINES IA  CLOUDY    58  26  29 SE7       30.27F
DAVENPORT IA   FAIR      59  24  26 E17       30.32F
CHICAGO IL     CLOUDY    54  22  28 E8        30.38F
EAU CLAIRE WI  FAIR      59  29  31 N8        30.34F
LA CROSSE WI   PTSUNNY   59  30  33 CALM      30.35F
$$

  *****  SOME NATIONAL WEATHER *****

CITY           SKY/WX    TMP DP  RH WIND       PRES   REMARKS
LA GUARDIA NY  PTSUNNY   62  21  20 NW7       30.26S
RALEIGH NC     FAIR      68  36  30 CALM      30.33F
ATLANTA GA     PTSUNNY   72  44  36 E9        30.24F
NEW ORLEANS LA PTSUNNY   77  62  59 SE13      30.06F
OKLAHOMA CITY  LGT RAIN  47  46  97 NE10      30.05R
ALBUQUERQUE NM FAIR      61  29  29 VRB5      30.10F
SALT LAKE CITY FAIR      66  31  27 VRB6      30.17F
LOS ANGELES CA FAIR      70  51  51 W15       30.02F
BOISE ID       FAIR      69  34  27 N10G18    30.15F
SEATTLE WA     LGT RAIN  51  37  58 N15       30.40R
$$

*** WEATHER ACROSS MANITOBA...SASKATCHEWAN AND ONTARIO ***
                ***ONTARIO***

CITY           SKY/WX    TMP DP  RH WIND       PRES   REMARKS
GERALDTON      MOSUNNY   57  12  17 VRB6      30.29F
THUNDER BAY    SUNNY     59  21  23 S10       30.32F
SIOUX LOOKOUT  MOSUNNY   57  27  30 W6        30.27F
TORONTO        MOSUNNY   55  19  24 NW8       30.37F
BIG TROUT LK   MOSUNNY   57  27  30 SW6       30.19F
PICKLE LAKE    MOSUNNY   57  19  23 S10       30.24F
DRYDEN         SUNNY     59  25  27 W7        30.27F
KENORA         NOT AVBL
$$
                *** MANITOBA***

CITY           SKY/WX    TMP DP  RH WIND       PRES   REMARKS
BRANDON        PTSUNNY   63  45  51 S23G29    30.10F
DAUPHIN        SUNNY     63  43  48 S15G25    30.05F
ISLAND LAKE    PTSUNNY   63  28  27 SW8       30.14F
PILOT MOUND      N/A     61  39  44 S24G36      N/A
THE PAS        CLOUDY    48  34  57 SE15      29.95F
THOMPSON       PTSUNNY   63  30  29 S9G17     30.01F
WINNIPEG       MOSUNNY   66  41  39 SW13G25   30.18F
LYNN LAKE      PTSUNNY   57  32  38 SE8       29.93F
CHURCHILL      MOSUNNY   48  34  57 N12       30.02R
GILLAM         MOSUNNY   61  32  33 SW13G22   30.05S
$$
                ***SASKATCHEWAN***

CITY           SKY/WX    TMP DP  RH WIND       PRES   REMARKS
ESTEVAN        PTSUNNY   64  43  45 S16G32    29.99F
KINDERSLEY     MOSUNNY   59  43  55 S14G26    29.71F
LLOYDMINSTER   CLOUDY    43  39  87 E5        29.65F
PRINCE ALBERT  CLOUDY    43  36  75 E6        29.83F
REGINA         CLOUDY    66  39  37 S18G24    29.88F
YORKTON        SUNNY     52  41  66 SE13G21   29.98F



USA.gov is the U.S. government's official web portal to all federal, state and local government web resources and services.